Location: St. Louis
(38.6270°N, 90.1994°W)
Time: 12:39:49
(UTC-06:00)

Transit 4A - Pass Details

Date: 03 December 2021
Orbit: 864 x 980 km, 66.8° (Epoch: 16 January)

Event Time Altitude Azimuth Distance (km) Brightness Sun altitude
Rises 03:57:23 0° 336° (NNW) 3,616 - -35.4°
Reaches altitude 10° 04:00:00 10° 341° (NNW) 2,684 - -34.8°
Exits shadow 04:05:39 50° 42° (NE) 1,220 8.6 -33.7°
Maximum altitude 04:06:06 51° 57° (ENE) 1,207 8.6 -33.7°
Drops below altitude 10° 04:12:17 10° 132° (SE) 2,720 10.9 -32.5°
Sets 04:14:56 0° 137° (SE) 3,668 11.6 -31.9°
